STELLA (22824 NORAD) Tracking and Keplerian Element Data

This shows tracking and keplerian element data for the satellite.

Feedback or suggestion? Click here.




ElementValue
Catalog22824
NameSTELLA
Epoch Orbit63368
Epoch Day34.91497319
Epoch Year2025
RAAN90.4036
Inclination98.8457
Eccentricity0.0005423
Argument of Perigee241.3301
Mean Anonmoly293.5657
Mean Motion14.27448309
Decay Rate-2.8E-07
L11 22824U 93061B 25034.91497319 -.00000028 00000+0 72434-5 0 9999
L22 22824 98.8457 90.4036 0005423 241.3301 293.5657 14.27448309633686



Live tracking and technical data element details for STELLA (NORAD 22824). STELLA can be tracked NOW for your location showing map with azimuth and elevation plus other details from your city location.







IsCatalogInMostPopularTable: catalog: 22824, numindb: 589
Update: records affected: 1



GetName: 22824 STELLA

Hit Count: updated at: Sat, 17 May 2025 08:28:41 GMT